Regional Weather Roundup
Issued by NWS

Home | Current Version | Previous Version | Text Only | Print | Product List | Glossary Off
Versions: 1 2 3 4 5 6 7 8 9 10 11 12 13 14 15 16 17 18 19 20 21 22 23 24 25 26 27 28 29 30 31 32 33 34 35 36 37 38 39 40 41 42 43 44 45 46 47 48 49 50

265
ASUS43 KLMK 240202
RWRKY
KENTUCKY REGIONAL WEATHER ROUNDUP
NATIONAL WEATHER SERVICE LOUISVILLE KY
1000 PM EDT TUE MAY 23 2017

NOTE "FAIR" INDICATES FEW OR NO CLOUDS BELOW 12,000 FEET
WITH NO SIGNIFICANT WEATHER AND/OR OBSTRUCTIONS TO VISIBILITY.

KYZ001>023-026-027-061>063-070>075-240300-
WESTERN AND SOUTH CENTRAL KENTUCKY

CITY           SKY/WX    TMP DP  RH WIND       PRES   REMARKS
PADUCAH        CLOUDY    68  56  65 CALM      29.65R
HENDERSON      PTCLDY    68  54  60 NW3       29.65S
OWENSBORO      CLOUDY    69  53  56 NW5       29.64F
HOPKINSVILLE   MOCLDY    69  52  54 NW3       29.64F
BOWLING GREEN  CLOUDY    70  54  56 W5        29.65R
GLASGOW        NOT AVBL
$$

KYZ024-025-028>034-038-045-046-053-240300-
NORTH CENTRAL KENTUCKY

CITY           SKY/WX    TMP DP  RH WIND       PRES   REMARKS
LOUISVILLE/SDF MOCLDY    70  53  54 NW6       29.63S
LOUISVILLE/LOU CLOUDY    71  55  56 NW5       29.64S
FORT KNOX      CLOUDY    64  56  75 NW5       29.62F
$$

KYZ035>037-039>044-047>052-055>060-089>105-240300-
NORTHEAST KENTUCKY

CITY           SKY/WX    TMP DP  RH WIND       PRES   REMARKS
LEXINGTON      LGT RAIN  63  58  83 SE6       29.66S
COVINGTON      CLOUDY    68  54  60 SE8       29.65S
FRANKFORT      CLOUDY    68  55  63 SE3       29.64S
$$

KYZ054-064>069-076>088-106>120-240300-
SOUTHEAST KENTUCKY

CITY           SKY/WX    TMP DP  RH WIND       PRES   REMARKS
JACKSON        LGT RAIN  61  59  93 CALM      29.68F
LONDON         PTCLDY    60  58  92 CALM      29.69R
SOMERSET       CLOUDY    61  57  88 CALM      29.68F
MIDDLESBORO    CLOUDY    63  63  98 CALM      29.69R
MONTICELLO     MOCLDY    63  60  90 N13       29.68S
$$





USA.gov is the U.S. government's official web portal to all federal, state and local government web resources and services.